DLH2MA EDDP-EDDM

Flight info

Callsign DLH2MA
Flight time 0h 40m
Altitude 29000
Route GOLAT2N GOLAT T202 ALOSO T703 LULAR/N0459F300 T105 LANDU LANDU2B
Aircraft A320/M-SDE3FGHIRWY/LB1

Departure

Time 2026-05-04 18:58
Airport Leipzig/Halle Airport (EDDP)

Arrival

Time 2026-05-04 19:39
Airport Munich Airport (EDDM)
Time Latitude Longitude Altitude Speed Heading
2026-05-04 18:26 51.41934 12.21879 426 ft 0 kts 15°
2026-05-04 18:47 51.41912 12.21869 424 ft 4 kts 15°
2026-05-04 18:47 51.41886 12.21858 429 ft 4 kts 18°
2026-05-04 18:48 51.41862 12.21841 432 ft 4 kts 36°
2026-05-04 18:48 51.41846 12.21813 432 ft 4 kts 85°
2026-05-04 18:48 51.41846 12.21798 424 ft 0 kts 105°
2026-05-04 18:51 51.41839 12.21840 427 ft 10 kts 105°
2026-05-04 18:51 51.41815 12.21980 432 ft 14 kts 105°
2026-05-04 18:52 51.41784 12.22159 436 ft 18 kts 105°
2026-05-04 18:52 51.41750 12.22359 423 ft 19 kts 105°
2026-05-04 18:52 51.41713 12.22572 442 ft 21 kts 105°
2026-05-04 18:52 51.41672 12.22812 452 ft 23 kts 105°
2026-05-04 18:53 51.41645 12.22973 458 ft 21 kts 105°
2026-05-04 18:53 51.41608 12.23189 464 ft 19 kts 105°
2026-05-04 18:53 51.41604 12.23396 466 ft 19 kts 85°
2026-05-04 18:53 51.41615 12.23640 470 ft 23 kts 86°
2026-05-04 18:54 51.41626 12.23891 473 ft 23 kts 85°
2026-05-04 18:54 51.41639 12.24141 476 ft 22 kts 85°
2026-05-04 18:54 51.41650 12.24387 475 ft 24 kts 85°
2026-05-04 18:54 51.41662 12.24651 476 ft 22 kts 86°
2026-05-04 18:55 51.41742 12.24804 480 ft 20 kts 14°
2026-05-04 18:55 51.42055 12.24926 491 ft 25 kts 13°
2026-05-04 18:55 51.42226 12.24991 483 ft 24 kts 13°
2026-05-04 18:56 51.42376 12.25050 479 ft 23 kts 13°
2026-05-04 18:56 51.42543 12.25113 470 ft 25 kts 14°
2026-05-04 18:56 51.42701 12.25174 462 ft 25 kts 13°
2026-05-04 18:56 51.42871 12.25239 452 ft 25 kts 13°
2026-05-04 18:57 51.43013 12.25248 450 ft 18 kts 315°
2026-05-04 18:57 51.43082 12.25037 449 ft 24 kts 295°
2026-05-04 18:57 51.43171 12.24739 441 ft 33 kts 295°
2026-05-04 18:57 51.43250 12.24388 435 ft 34 kts 275°
2026-05-04 18:58 51.43237 12.23991 437 ft 41 kts 265°
2026-05-04 18:58 51.43196 12.23099 440 ft 122 kts 265°
2026-05-04 18:58 51.43117 12.21394 654 ft 169 kts 266°
2026-05-04 18:58 51.43028 12.19468 1432 ft 177 kts 266°
2026-05-04 18:59 51.42926 12.17465 2122 ft 187 kts 266°
2026-05-04 18:59 51.42814 12.15290 2492 ft 204 kts 266°
2026-05-04 18:59 51.42696 12.12928 2859 ft 220 kts 266°
2026-05-04 18:59 51.42571 12.10359 3174 ft 245 kts 266°
2026-05-04 19:00 51.42436 12.07508 3703 ft 262 kts 265°
2026-05-04 19:00 51.42300 12.04584 4665 ft 264 kts 265°
2026-05-04 19:00 51.42164 12.01634 5573 ft 267 kts 264°
2026-05-04 19:00 51.42026 11.98655 6510 ft 268 kts 262°
2026-05-04 19:01 51.41411 11.95862 7357 ft 268 kts 236°
2026-05-04 19:01 51.40162 11.93655 8227 ft 269 kts 218°
2026-05-04 19:01 51.38572 11.92034 9084 ft 272 kts 209°
2026-05-04 19:01 51.36915 11.90550 9967 ft 274 kts 210°
2026-05-04 19:02 51.35198 11.88976 10435 ft 291 kts 210°
2026-05-04 19:02 51.33407 11.87313 10770 ft 310 kts 210°
2026-05-04 19:02 51.31504 11.85549 11105 ft 329 kts 209°
2026-05-04 19:02 51.29473 11.83673 11489 ft 343 kts 210°
2026-05-04 19:03 51.27312 11.82004 12110 ft 349 kts 199°
2026-05-04 19:03 51.24929 11.81155 12765 ft 355 kts 186°
2026-05-04 19:03 51.22443 11.81198 13450 ft 360 kts 175°
2026-05-04 19:03 51.19935 11.81371 14093 ft 362 kts 183°
2026-05-04 19:04 51.17418 11.81007 14732 ft 364 kts 189°
2026-05-04 19:04 51.14908 11.80362 15357 ft 367 kts 191°
2026-05-04 19:04 51.12389 11.79613 15973 ft 369 kts 192°
2026-05-04 19:04 51.09853 11.78872 16579 ft 372 kts 191°
2026-05-04 19:05 51.07283 11.78180 17173 ft 375 kts 190°
2026-05-04 19:05 51.04693 11.77547 17752 ft 378 kts 190°
2026-05-04 19:05 51.02076 11.76957 18315 ft 381 kts 189°
2026-05-04 19:05 50.99435 11.76386 18804 ft 384 kts 189°
2026-05-04 19:06 50.96775 11.75819 19270 ft 388 kts 189°
2026-05-04 19:06 50.94083 11.75245 19717 ft 392 kts 189°
2026-05-04 19:06 50.91367 11.74661 20181 ft 395 kts 189°
2026-05-04 19:06 50.88639 11.74070 20647 ft 398 kts 190°
2026-05-04 19:07 50.85887 11.73470 21120 ft 400 kts 190°
2026-05-04 19:07 50.83094 11.72859 21587 ft 403 kts 190°
2026-05-04 19:07 50.80326 11.72253 22043 ft 406 kts 190°
2026-05-04 19:07 50.77518 11.71642 22496 ft 409 kts 190°
2026-05-04 19:08 50.74691 11.71030 22941 ft 411 kts 190°
2026-05-04 19:08 50.71820 11.70758 23361 ft 417 kts 181°
2026-05-04 19:08 50.68922 11.71279 23738 ft 423 kts 171°
2026-05-04 19:08 50.66086 11.72570 24085 ft 427 kts 165°
2026-05-04 19:09 50.63251 11.74056 24398 ft 431 kts 165°
2026-05-04 19:09 50.60397 11.75545 24724 ft 433 kts 165°
2026-05-04 19:09 50.57525 11.77037 25065 ft 436 kts 165°
2026-05-04 19:09 50.54637 11.78528 25402 ft 438 kts 165°
2026-05-04 19:10 50.51735 11.80016 25743 ft 440 kts 165°
2026-05-04 19:10 50.48816 11.81509 26085 ft 442 kts 165°
2026-05-04 19:10 50.45895 11.83095 26411 ft 446 kts 161°
2026-05-04 19:10 50.43033 11.85022 26729 ft 449 kts 160°
2026-05-04 19:11 50.40159 11.86974 27048 ft 451 kts 160°
2026-05-04 19:11 50.37274 11.88939 27357 ft 453 kts 160°
2026-05-04 19:11 50.34375 11.90913 27652 ft 455 kts 160°
2026-05-04 19:11 50.31466 11.92890 27949 ft 457 kts 160°
2026-05-04 19:12 50.28575 11.94842 28232 ft 459 kts 160°
2026-05-04 19:12 50.22679 11.98797 28857 ft 461 kts 160°
2026-05-04 19:13 50.16805 12.02726 28971 ft 459 kts 160°
2026-05-04 19:13 50.10942 12.06668 28963 ft 459 kts 160°
2026-05-04 19:14 50.05074 12.10607 28959 ft 459 kts 160°
2026-05-04 19:14 49.99204 12.14520 28917 ft 458 kts 160°
2026-05-04 19:14 49.96274 12.16466 28660 ft 457 kts 160°
2026-05-04 19:15 49.93349 12.18406 28286 ft 457 kts 160°
2026-05-04 19:15 49.90417 12.20347 27884 ft 458 kts 160°
2026-05-04 19:15 49.87491 12.22282 27489 ft 459 kts 160°
2026-05-04 19:15 49.84548 12.24225 27104 ft 459 kts 160°
2026-05-04 19:16 49.81610 12.26159 26911 ft 459 kts 160°
2026-05-04 19:16 49.78668 12.28094 26955 ft 460 kts 160°
2026-05-04 19:16 49.75720 12.30034 26938 ft 461 kts 159°
2026-05-04 19:16 49.72800 12.32125 26955 ft 463 kts 153°
2026-05-04 19:17 49.70086 12.34835 26844 ft 464 kts 145°
2026-05-04 19:17 49.67553 12.37803 26583 ft 452 kts 145°
2026-05-04 19:17 49.65060 12.40729 26323 ft 447 kts 145°
2026-05-04 19:17 49.62585 12.43628 26077 ft 445 kts 145°
2026-05-04 19:18 49.60125 12.46498 25831 ft 443 kts 145°
2026-05-04 19:18 49.57666 12.49361 25570 ft 442 kts 145°
2026-05-04 19:18 49.55219 12.52207 25106 ft 439 kts 145°
2026-05-04 19:18 49.52791 12.55026 24621 ft 436 kts 145°
2026-05-04 19:19 49.50377 12.57821 24148 ft 433 kts 146°
2026-05-04 19:19 49.47983 12.60585 23691 ft 430 kts 146°
2026-05-04 19:19 49.45626 12.63305 23162 ft 427 kts 145°
2026-05-04 19:19 49.43223 12.66072 22615 ft 424 kts 146°
2026-05-04 19:20 49.40767 12.68495 22085 ft 418 kts 154°
2026-05-04 19:20 49.38171 12.70274 21573 ft 411 kts 164°
2026-05-04 19:20 49.35416 12.71271 21045 ft 403 kts 175°
2026-05-04 19:20 49.32643 12.71394 20544 ft 395 kts 187°
2026-05-04 19:21 49.29965 12.70722 20058 ft 387 kts 197°
2026-05-04 19:21 49.27456 12.69365 19715 ft 377 kts 206°
2026-05-04 19:21 49.25125 12.67684 19546 ft 364 kts 207°
2026-05-04 19:21 49.22857 12.66076 19229 ft 357 kts 206°
2026-05-04 19:22 49.20609 12.64509 18820 ft 353 kts 205°
2026-05-04 19:22 49.18358 12.63036 18401 ft 351 kts 204°
2026-05-04 19:22 49.16107 12.61645 17954 ft 348 kts 203°
2026-05-04 19:22 49.13862 12.60293 17506 ft 345 kts 203°
2026-05-04 19:23 49.11635 12.58960 17065 ft 342 kts 203°
2026-05-04 19:23 49.09435 12.57641 16625 ft 339 kts 203°
2026-05-04 19:23 49.07253 12.56324 16215 ft 335 kts 203°
2026-05-04 19:23 49.05095 12.55015 15795 ft 333 kts 202°
2026-05-04 19:24 49.02954 12.53708 15355 ft 330 kts 202°
2026-05-04 19:24 49.00827 12.52406 14953 ft 328 kts 202°
2026-05-04 19:24 48.98720 12.51112 14556 ft 325 kts 202°
2026-05-04 19:24 48.96633 12.49833 14160 ft 322 kts 202°
2026-05-04 19:25 48.94560 12.48566 13766 ft 320 kts 202°
2026-05-04 19:25 48.92502 12.47310 13324 ft 318 kts 202°
2026-05-04 19:25 48.90385 12.46401 12860 ft 317 kts 188°
2026-05-04 19:25 48.88190 12.46138 12369 ft 316 kts 185°
2026-05-04 19:26 48.86026 12.45944 11906 ft 316 kts 185°
2026-05-04 19:26 48.83807 12.45746 11432 ft 315 kts 185°
2026-05-04 19:26 48.81652 12.45555 10977 ft 314 kts 185°
2026-05-04 19:26 48.79445 12.45355 10530 ft 313 kts 185°
2026-05-04 19:27 48.77310 12.45158 10098 ft 312 kts 185°
2026-05-04 19:27 48.75148 12.44952 9657 ft 310 kts 185°
2026-05-04 19:27 48.73031 12.44746 9506 ft 299 kts 185°
2026-05-04 19:27 48.70993 12.44549 9323 ft 289 kts 185°
2026-05-04 19:28 48.68991 12.44354 8960 ft 287 kts 185°
2026-05-04 19:28 48.67030 12.43916 8542 ft 284 kts 199°
2026-05-04 19:28 48.65202 12.42784 8123 ft 284 kts 204°
2026-05-04 19:28 48.63409 12.41552 7696 ft 283 kts 205°
2026-05-04 19:29 48.61627 12.40305 7312 ft 281 kts 205°
2026-05-04 19:29 48.59855 12.39050 6905 ft 281 kts 205°
2026-05-04 19:29 48.58107 12.37809 6688 ft 273 kts 205°
2026-05-04 19:29 48.56429 12.36615 6564 ft 261 kts 205°
2026-05-04 19:30 48.54825 12.35472 6445 ft 249 kts 205°
2026-05-04 19:30 48.53290 12.34374 6287 ft 240 kts 205°
2026-05-04 19:30 48.51788 12.33297 5980 ft 238 kts 205°
2026-05-04 19:30 48.50295 12.32227 5646 ft 237 kts 204°
2026-05-04 19:31 48.48808 12.31160 5300 ft 237 kts 205°
2026-05-04 19:31 48.47320 12.30095 5020 ft 236 kts 204°
2026-05-04 19:31 48.45839 12.29029 4986 ft 237 kts 204°
2026-05-04 19:31 48.44343 12.27953 4985 ft 239 kts 205°
2026-05-04 19:32 48.42841 12.26879 4991 ft 239 kts 204°
2026-05-04 19:32 48.41337 12.25798 4987 ft 239 kts 205°
2026-05-04 19:32 48.39839 12.24712 4985 ft 239 kts 206°
2026-05-04 19:32 48.38522 12.23216 4987 ft 240 kts 228°
2026-05-04 19:33 48.37653 12.21077 4989 ft 242 kts 249°
2026-05-04 19:33 48.37314 12.18603 4993 ft 243 kts 263°
2026-05-04 19:33 48.37134 12.16073 4996 ft 241 kts 263°
2026-05-04 19:33 48.36961 12.13649 4995 ft 226 kts 263°
2026-05-04 19:34 48.36795 12.11372 5001 ft 212 kts 262°
2026-05-04 19:34 48.36639 12.09249 5008 ft 195 kts 262°
2026-05-04 19:34 48.36541 12.07925 4947 ft 190 kts 262°
2026-05-04 19:34 48.36395 12.05964 4760 ft 188 kts 262°
2026-05-04 19:35 48.36204 12.03390 4446 ft 187 kts 262°
2026-05-04 19:35 48.36059 12.01444 4202 ft 187 kts 263°
2026-05-04 19:35 48.35915 11.99509 3959 ft 186 kts 263°
2026-05-04 19:35 48.35770 11.97570 3717 ft 187 kts 263°
2026-05-04 19:36 48.35625 11.95631 3475 ft 187 kts 263°
2026-05-04 19:36 48.35529 11.94346 3316 ft 187 kts 263°
2026-05-04 19:36 48.35384 11.92418 3076 ft 182 kts 263°
2026-05-04 19:36 48.35246 11.90586 2840 ft 172 kts 263°
2026-05-04 19:37 48.35116 11.88863 2635 ft 161 kts 264°
2026-05-04 19:37 48.34993 11.87226 2406 ft 155 kts 264°
2026-05-04 19:37 48.34878 11.85652 2209 ft 150 kts 265°
2026-05-04 19:37 48.34759 11.84111 2005 ft 147 kts 265°
2026-05-04 19:38 48.34642 11.82603 1824 ft 144 kts 264°
2026-05-04 19:38 48.34532 11.81108 1631 ft 143 kts 265°
2026-05-04 19:38 48.34423 11.79639 1493 ft 134 kts 265°
2026-05-04 19:38 48.34326 11.78453 1485 ft 80 kts 264°
2026-05-04 19:39 48.34334 11.77932 1476 ft 41 kts 290°
2026-05-04 19:39 48.34426 11.77609 1477 ft 20 kts 293°
2026-05-04 19:39 48.34473 11.77478 1478 ft 13 kts 312°
2026-05-04 19:39 48.34558 11.77433 1485 ft 9 kts 353°
2026-05-04 19:40 48.34565 11.77431 1485 ft 0 kts 353°
2026-05-04 19:40 48.34570 11.77431 1479 ft 4 kts 353°
2026-05-04 19:40 48.34619 11.77439 1480 ft 9 kts 36°
2026-05-04 19:41 48.34638 11.77575 1473 ft 17 kts 83°
2026-05-04 19:41 48.34655 11.77787 1481 ft 23 kts 83°
2026-05-04 19:41 48.34674 11.78032 1485 ft 25 kts 83°
2026-05-04 19:41 48.34694 11.78294 1485 ft 26 kts 83°
2026-05-04 19:42 48.34715 11.78566 1485 ft 25 kts 83°
2026-05-04 19:42 48.34736 11.78834 1485 ft 25 kts 83°
2026-05-04 19:42 48.34756 11.79101 1485 ft 26 kts 83°
2026-05-04 19:42 48.34776 11.79365 1481 ft 22 kts 83°
2026-05-04 19:43 48.34809 11.79550 1475 ft 16 kts 34°
2026-05-04 19:43 48.34928 11.79545 1479 ft 17 kts 353°
2026-05-04 19:43 48.35025 11.79528 1485 ft 12 kts 353°
2026-05-04 19:43 48.35122 11.79512 1485 ft 16 kts 353°
2026-05-04 19:44 48.35241 11.79491 1485 ft 18 kts 354°
2026-05-04 19:44 48.35370 11.79468 1481 ft 18 kts 353°
2026-05-04 19:44 48.35479 11.79450 1481 ft 16 kts 353°
2026-05-04 19:44 48.35596 11.79429 1482 ft 17 kts 353°
2026-05-04 19:45 48.35683 11.79410 1479 ft 5 kts 332°
2026-05-04 19:45 48.35684 11.79362 1483 ft 6 kts 264°
2026-05-04 19:45 48.35681 11.79312 1485 ft 4 kts 264°
2026-05-04 19:45 48.35678 11.79276 1485 ft 3 kts 263°
2026-05-04 19:46 48.35677 11.79264 1485 ft 0 kts 263°